Simultaneous Nadir Overpasses (SNOs) Predictions

Prediction of SNOs between AQUA and NPP Satellite Orbit:

Table of predicted SNOs for the next 14.0 days since TLE Epoch: 4/20/2019
Index Date (AQUA) Time (AQUA) Lat,Lon (AQUA) SZA (AQUA ) Date (NPP) Time (NPP) Lat,Lon (NPP) SZA (NPP ) Distance(km) Time Diff (sec)
1 04/20/2019 14:05:47 75.24,-154.54 86.72 04/20/2019 14:04:34 75.24,-154.49 86.77 1.54 73
2 04/20/2019 14:54:54 -76.22, 16.00 94.43 04/20/2019 14:54:59 -76.22, 15.99 94.43 0.23 5
3 04/23/2019 06:22:08 75.51, -37.89 85.49 04/23/2019 06:21:25 75.51, -37.90 85.53 0.35 43
4 04/23/2019 07:11:15 -76.49, 132.76 95.65 04/23/2019 07:11:50 -76.48, 132.71 95.67 1.54 35
5 04/25/2019 22:38:29 75.78, 78.79 84.30 04/25/2019 22:38:16 75.77, 78.69 84.33 2.75 13
6 04/25/2019 23:27:30 -77.03,-109.43 97.18 04/25/2019 23:28:34 -77.04,-109.34 97.26 2.49 64
7 04/28/2019 14:05:43 -75.11, 25.14 95.79 04/28/2019 14:04:43 -75.10, 25.08 95.72 1.72 60
8 04/28/2019 14:54:44 76.34,-163.59 82.80 04/28/2019 14:55:00 76.34,-163.59 82.78 0.16 16
9 05/01/2019 06:21:56 -75.72, 142.74 97.31 05/01/2019 06:21:25 -75.72, 142.75 97.29 0.37 31
10 05/01/2019 07:10:59 76.83, -46.02 81.39 05/01/2019 07:11:44 76.84, -45.92 81.33 2.52 45
11 05/03/2019 21:53:38 60.09, 69.96 97.95 05/03/2019 21:52:25 60.32, 68.66 98.24 76.65 73
12 05/03/2019 22:38:12 -76.22, -99.83 98.68 05/03/2019 22:38:10 -76.23, -99.77 98.70 1.86 2




NCC Satellite Simultaneous Nadir Overpasses (SNOs) Prediction Service
